This is the latest recevied weather packets stored in our database for station/object N7NMS-13. If no packets are shown the sender has not sent any weather packets the latest 10 day(s).
| Time | Temp. | Humidity | Pressure | Rain* | Wind** | Luminosity | Snow |
|---|---|---|---|---|---|---|---|
| 1777565418 | 12.78° C | 59% | - | 0 mm | - | - | - |
| 1777564818 | 12.78° C | 58% | - | 0 mm | - | - | - |
| 1777564218 | 12.22° C | 61% | - | 0 mm | - | - | - |
| 1777563618 | 11.67° C | 60% | - | 0 mm | - | - | - |
| 1777563018 | 11.11° C | 60% | - | 0 mm | - | - | - |
| 1777562388 | 11.11° C | 60% | - | 0 mm | - | - | - |
| 1777561758 | 12.78° C | 61% | - | 0 mm | - | - | - |
| 1777561128 | 11.67° C | 62% | - | 0 mm | - | - | - |
| 1777560498 | 11.67° C | 67% | - | 0 mm | - | - | - |
| 1777559868 | 12.22° C | 65% | - | 0 mm | - | - | - |
| 1777559269 | 12.22° C | 67% | - | 0 mm | - | - | - |
| 1777558668 | 12.22° C | 67% | - | 0 mm | - | - | - |
| 1777558068 | 11.11° C | 67% | - | 0 mm | - | - | - |
| 1777557468 | 11.11° C | 70% | - | 0 mm | - | - | - |
| 1777556869 | 11.11° C | 70% | - | 0 mm | - | - | - |
| 1777556269 | 10.56° C | 70% | - | 0 mm | - | - | - |
| 1777555669 | 10.56° C | 75% | - | 0 mm | - | - | - |
| 1777555069 | 10.56° C | 75% | - | 0 mm | - | - | - |
| 1777554439 | 11.11° C | 78% | - | 0 mm | - | - | - |
| 1777553809 | 10.56° C | 78% | - | 0 mm | - | - | - |
| 1777553209 | 10.56° C | 79% | - | 0 mm | - | - | - |
| 1777552609 | 10.56° C | 78% | - | 0 mm | - | - | - |
| 1777552009 | 10.56° C | 79% | - | 0 mm | - | - | - |
| 1777551409 | 10° C | 79% | - | 0 mm | - | - | - |
| 1777550809 | 10° C | 78% | - | 0 mm | - | - | - |
* Rain latest hour (hover to see other rain measurements)
** Current wind speed in m/s (hover to see current wind gust speed)